User: anonymous   Login
Location: Caltech
(34.1382°N, 118.1253°W)
Time: 23:59:55
(UTC-08:00)
Language:

Cosmos 2333 Rocket - Orbit

View from above orbital plane
View from above orbital plane
View from above satellite
View from above satellite

Ground track
Ground track

The orbit data is extracted from the following two-line orbital elements,

1 24298U 96051B   14359.86120309 -.00000110  00000-0 -33518-4 0  6307
2 24298 070.8550 168.2904 0013320 086.1245 014.1631 14.12451906944137
Epoch (UTC): 25 December 2014 20:40:07
Eccentricity: 0.0013320
inclination: 70.8550°
perigee height: 841 km
apogee height: 860 km
right ascension of ascending node: 168.2904°
argument of perigee: 86.1245°
revolutions per day: 14.12451906
mean anomaly at epoch: 14.1631°
orbit number at epoch: 94413

The dashed part of the orbit path shows where the satellite is in the earth's shadow,  

DLR